Time,TemperatureF,DewpointF,PressureIn,WindDirection,WindDirectionDegrees,WindSpeedMPH,WindSpeedGustMPH,Humidity,HourlyPrecipIn,Conditions,Clouds,dailyrainin,SoftwareType,DateUTC
2013-02-07 06:30:00,23.9,20.0,25.32,West,273,5.0,12.0,85,0.00,,,0.00,weatherlink.com 1.10,2013-02-07 13:30:00,
2013-02-07 06:42:00,23.1,19.0,25.33,West,278,8.0,13.0,84,0.00,,,0.00,weatherlink.com 1.10,2013-02-07 13:42:00,
2013-02-07 06:57:00,22.2,18.0,25.33,WNW,287,4.0,14.0,84,0.00,,,0.00,weatherlink.com 1.10,2013-02-07 13:57:00,
2013-02-07 07:12:00,22.0,18.0,25.34,WSW,250,8.0,12.0,83,0.00,,,0.00,weatherlink.com 1.10,2013-02-07 14:12:00,
2013-02-07 07:27:00,22.2,18.0,25.34,NW,307,5.0,11.0,82,0.00,,,0.00,weatherlink.com 1.10,2013-02-07 14:27:00,
2013-02-07 07:42:00,23.4,18.0,25.34,WNW,297,5.0,11.0,79,0.00,,,0.00,weatherlink.com 1.10,2013-02-07 14:42:00,
2013-02-07 07:57:00,24.4,18.0,25.34,WNW,293,6.0,11.0,76,0.00,,,0.00,weatherlink.com 1.10,2013-02-07 14:57:00,
2013-02-07 08:12:00,25.4,19.0,25.35,SW,229,3.0,10.0,75,0.00,,,0.00,weatherlink.com 1.10,2013-02-07 15:12:00,
2013-02-07 08:27:00,26.6,19.0,25.35,WNW,297,2.0,9.0,73,0.00,,,0.00,weatherlink.com 1.10,2013-02-07 15:27:00,
2013-02-07 08:42:00,28.4,20.0,25.35,West,276,5.0,8.0,70,0.00,,,0.00,weatherlink.com 1.10,2013-02-07 15:42:00,
2013-02-07 08:57:00,30.0,21.0,25.35,WNW,291,5.0,8.0,69,0.00,,,0.00,weatherlink.com 1.10,2013-02-07 15:57:00,
2013-02-07 09:12:00,32.3,22.0,25.35,West,274,6.0,7.0,66,0.00,,,0.00,weatherlink.com 1.10,2013-02-07 16:12:00,
2013-02-07 09:27:00,33.5,22.0,25.35,West,259,5.0,8.0,64,0.00,,,0.00,weatherlink.com 1.10,2013-02-07 16:27:00,
2013-02-07 09:42:00,35.4,23.0,25.34,West,281,5.0,6.0,62,0.00,,,0.00,weatherlink.com 1.10,2013-02-07 16:42:00,
2013-02-07 09:57:00,38.7,24.0,25.35,WNW,294,2.0,8.0,56,0.00,,,0.00,weatherlink.com 1.10,2013-02-07 16:57:00,
2013-02-07 10:12:00,40.4,24.0,25.34,NW,316,2.0,9.0,52,0.00,,,0.00,weatherlink.com 1.10,2013-02-07 17:12:00,
2013-02-07 10:27:00,41.7,23.0,25.35,NW,305,3.0,6.0,48,0.00,,,0.00,weatherlink.com 1.10,2013-02-07 17:27:00,
2013-02-07 10:42:00,43.4,23.0,25.35,West,262,3.0,7.0,45,0.00,,,0.00,weatherlink.com 1.10,2013-02-07 17:42:00,
2013-02-07 10:57:00,43.9,23.0,25.35,WNW,300,2.0,8.0,43,0.00,,,0.00,weatherlink.com 1.10,2013-02-07 17:57:00,
2013-02-07 11:12:00,43.9,21.0,25.34,NW,321,3.0,8.0,41,0.00,,,0.00,weatherlink.com 1.10,2013-02-07 18:12:00,
2013-02-07 11:27:00,44.5,20.0,25.34,NNW,328,2.0,6.0,38,0.00,,,0.00,weatherlink.com 1.10,2013-02-07 18:27:00,
2013-02-07 11:43:00,45.0,19.0,25.34,East,96,1.0,5.0,36,0.00,,,0.00,weatherlink.com 1.10,2013-02-07 18:43:00,
2013-02-07 11:58:00,45.8,19.0,25.33,West,260,3.0,7.0,34,0.00,,,0.00,weatherlink.com 1.10,2013-02-07 18:58:00,
2013-02-07 12:13:00,46.1,18.0,25.32,NNW,331,3.0,9.0,33,0.00,,,0.00,weatherlink.com 1.10,2013-02-07 19:13:00,
2013-02-07 12:28:00,47.2,19.0,25.32,WSW,257,4.0,6.0,32,0.00,,,0.00,weatherlink.com 1.10,2013-02-07 19:28:00,
2013-02-07 12:43:00,47.3,18.0,25.32,ESE,119,0.0,6.0,31,0.00,,,0.00,weatherlink.com 1.10,2013-02-07 19:43:00,
2013-02-07 12:58:00,46.8,17.0,25.32,SW,236,6.0,8.0,31,0.00,,,0.00,weatherlink.com 1.10,2013-02-07 19:58:00,
2013-02-07 13:13:00,47.7,18.0,25.31,NW,321,4.0,9.0,30,0.00,,,0.00,weatherlink.com 1.10,2013-02-07 20:13:00,
2013-02-07 13:28:00,48.3,18.0,25.30,NW,325,2.0,8.0,30,0.00,,,0.00,weatherlink.com 1.10,2013-02-07 20:28:00,
2013-02-07 13:43:00,48.3,17.0,25.30,SW,221,8.0,8.0,29,0.00,,,0.00,weatherlink.com 1.10,2013-02-07 20:43:00,
2013-02-07 13:58:00,46.8,16.0,25.29,West,270,6.0,8.0,29,0.00,,,0.00,weatherlink.com 1.10,2013-02-07 20:58:00,
2013-02-07 14:13:00,48.2,15.0,25.29,WNW,294,4.0,8.0,27,0.00,,,0.00,weatherlink.com 1.10,2013-02-07 21:13:00,
2013-02-07 14:28:00,48.0,15.0,25.29,WSW,241,3.0,6.0,27,0.00,,,0.00,weatherlink.com 1.10,2013-02-07 21:28:00,
2013-02-07 14:43:00,48.0,15.0,25.28,WNW,288,3.0,12.0,27,0.00,,,0.00,weatherlink.com 1.10,2013-02-07 21:43:00,
2013-02-07 14:58:00,47.9,15.0,25.28,WNW,288,3.0,11.0,27,0.00,,,0.00,weatherlink.com 1.10,2013-02-07 21:58:00,
2013-02-07 15:13:00,47.7,15.0,25.28,NNE,30,0.0,7.0,27,0.00,,,0.00,weatherlink.com 1.10,2013-02-07 22:13:00,
2013-02-07 15:28:00,48.7,15.0,25.28,SW,221,8.0,18.0,26,0.00,,,0.00,weatherlink.com 1.10,2013-02-07 22:28:00,
2013-02-07 15:43:00,48.4,16.0,25.27,South,180,2.0,6.0,27,0.00,,,0.00,weatherlink.com 1.10,2013-02-07 22:43:00,
2013-02-07 15:58:00,48.5,15.0,25.27,SSE,156,2.0,9.0,26,0.00,,,0.00,weatherlink.com 1.10,2013-02-07 22:58:00,
2013-02-07 16:13:00,48.3,15.0,25.27,SSE,160,2.0,7.0,26,0.00,,,0.00,weatherlink.com 1.10,2013-02-07 23:13:00,
2013-02-07 16:28:00,48.3,15.0,25.27,SSW,212,5.0,8.0,26,0.00,,,0.00,weatherlink.com 1.10,2013-02-07 23:28:00,
2013-02-07 16:43:00,47.8,14.0,25.27,South,170,2.0,9.0,26,0.00,,,0.00,weatherlink.com 1.10,2013-02-07 23:43:00,
2013-02-07 16:58:00,47.2,14.0,25.27,SE,137,2.0,4.0,26,0.00,,,0.00,weatherlink.com 1.10,2013-02-07 23:58:00,
2013-02-07 17:13:00,43.9,15.0,25.27,SSW,197,3.0,4.0,31,0.00,,,0.00,weatherlink.com 1.10,2013-02-08 00:13:00,
2013-02-07 17:28:00,41.0,15.0,25.27,SSW,212,4.0,6.0,35,0.00,,,0.00,weatherlink.com 1.10,2013-02-08 00:28:00,
2013-02-07 17:43:00,39.0,15.0,25.27,SSE,148,3.0,7.0,37,0.00,,,0.00,weatherlink.com 1.10,2013-02-08 00:43:00,
2013-02-07 17:58:00,37.3,14.0,25.28,South,180,5.0,9.0,39,0.00,,,0.00,weatherlink.com 1.10,2013-02-08 00:58:00,
2013-02-07 18:13:00,35.8,14.0,25.28,SSW,207,6.0,10.0,41,0.00,,,0.00,weatherlink.com 1.10,2013-02-08 01:13:00,
2013-02-07 18:28:00,34.7,14.0,25.27,SW,216,8.0,9.0,43,0.00,,,0.00,weatherlink.com 1.10,2013-02-08 01:28:00,
2013-02-07 18:43:00,33.4,14.0,25.28,SSW,207,5.0,8.0,45,0.00,,,0.00,weatherlink.com 1.10,2013-02-08 01:43:00,
2013-02-07 18:58:00,32.7,14.0,25.28,West,263,6.0,10.0,47,0.00,,,0.00,weatherlink.com 1.10,2013-02-08 01:58:00,
2013-02-07 19:13:00,32.2,15.0,25.27,SW,229,6.0,10.0,49,0.00,,,0.00,weatherlink.com 1.10,2013-02-08 02:13:00,
2013-02-07 19:28:00,31.7,15.0,25.27,SW,215,11.0,11.0,50,0.00,,,0.00,weatherlink.com 1.10,2013-02-08 02:28:00,
2013-02-07 19:43:00,31.0,15.0,25.28,SSW,198,4.0,12.0,51,0.00,,,0.00,weatherlink.com 1.10,2013-02-08 02:43:00,
2013-02-07 19:58:00,28.7,14.0,25.28,SW,228,5.0,7.0,54,0.00,,,0.00,weatherlink.com 1.10,2013-02-08 02:58:00,
2013-02-07 20:13:00,28.5,14.0,25.28,SE,131,2.0,6.0,55,0.00,,,0.00,weatherlink.com 1.10,2013-02-08 03:13:00,
2013-02-07 20:28:00,27.9,15.0,25.28,SW,215,5.0,6.0,59,0.00,,,0.00,weatherlink.com 1.10,2013-02-08 03:28:00,
2013-02-07 20:43:00,30.3,16.0,25.27,SSW,201,7.0,13.0,56,0.00,,,0.00,weatherlink.com 1.10,2013-02-08 03:43:00,
2013-02-07 20:58:00,30.6,16.0,25.27,South,190,7.0,12.0,55,0.00,,,0.00,weatherlink.com 1.10,2013-02-08 03:58:00,
2013-02-07 21:13:00,30.8,16.0,25.27,SSE,162,4.0,12.0,55,0.00,,,0.00,weatherlink.com 1.10,2013-02-08 04:13:00,
2013-02-07 21:28:00,29.8,16.0,25.27,SSE,150,5.0,8.0,57,0.00,,,0.00,weatherlink.com 1.10,2013-02-08 04:28:00,
2013-02-07 21:43:00,30.0,17.0,25.27,South,187,8.0,12.0,58,0.00,,,0.00,weatherlink.com 1.10,2013-02-08 04:43:00,
2013-02-07 21:58:00,30.4,17.0,25.27,South,187,9.0,17.0,57,0.00,,,0.00,weatherlink.com 1.10,2013-02-08 04:58:00,